User: anonymous   Login
Location: Ch?enovice
(49.7164°N, 15.2160°E)
Time: 19:12:14
(UTC+00:00)
Language:

Cosmos 2228 Rocket - Orbit

View from above orbital plane
View from above orbital plane
View from above satellite
View from above satellite

Ground track
Ground track

The orbit data is extracted from the following two-line orbital elements,

1 22287U 92094B   24207.04551834  .00000907  00000-0  11860-3 0  9995
2 22287  82.5241 184.4897 0025723 117.3354 243.0482 14.79138529680881
Epoch (UTC): 25 July 2024 01:05:32
Eccentricity: 0.0025723
inclination: 82.5241°
perigee height: 614 km
apogee height: 650 km
right ascension of ascending node: 184.4897°
argument of perigee: 117.3354°
revolutions per day: 14.79138529
mean anomaly at epoch: 243.0482°
orbit number at epoch: 68088

The dashed part of the orbit path shows where the satellite is in the earth's shadow,  

DLR